Погода Жангизтобе

Погода Жангизтобе : погода сейчас, прогноз погоды и архив. Всё, что Вы хотите узнать о погоде Жангизтобе!

Хотите узнать прогноз погоды Жангизтобе? Тогда Вам сюда: Погода Жангизтобе

Поиск расширенной информации на нашем сайте:

Другие новости

Новости СМИ2

Главная страница сайта

Новости сайта

03.07.2017

Напоминаем, что на нашем специализированном сайте Метеоцентр.Азия вы можете получить высокодетализированные автоматические прогнозы погоды по пунктам России, СНГ и мира в авиационном формате (включающие направление и скорость ветра, видимость, явления погоды, количество и форму облачности, нижнюю и верхнюю границу облачности).


Погода Жангизтобе - сегодня

Время (UTC), дата Ветер
(°,м/с) 
Видим.   Явления Облачность Т
(°С)
Тd
(°С)
f(%) Тe
(°С)
Pmin
(гПа)
dP
(гПа)
Po
(мм)
O2
(г/м3)
Тmin Tmax R s Состояние
почвы
06 15.08.17 300 (СЗ) 20000 м    3/0 верхняя 
[Ci fib]
+18.8 +8.6 51 +20  1012.2  -1  720  270  +7.8         
09 15.08.17 300 (СЗ) 20000 м    4/0 верхняя 
[Ci fib]
+22.7 +3.8 29 +23  1010.3  -1.2  719  267           
12 15.08.17 350 (С) 20000 м    6/0 средняя, верхняя 
[Ac lent|Ci fib]
+24.1 +3.7 27 +24  1009.7  -0.3  719  266           
15 15.08.17 030 (СВ) н/о    8/0 средняя, верхняя 
[Ac trans|Ci fib]
+18.2 +7.6 50 +18  1011.1  0.4  719  270    +25.3       
18 15.08.17 020 (С) н/о    3/0 верхняя 
[Ci fib]
+13.3 +5.8 60 +13  1014.2  721  276    +25.3       
21 15.08.17 300 (СЗ) н/о    3/0 средняя 
[Ac lent]
+11.3 +5.1 66 +11  1014.5  -0.1  721  278           
00 16.08.17 270 (З) 20000 м    8/6 1000 м верхняя 
[Sc|Ci fib]
+9 +7.1 88 +9  1014.6  -0.3  721  280           
03 16.08.17 320 (СЗ) 20000 м    10/10 1000 м 
[Sc]
+12 +8 76 +12  1014.6  0.6  721  277           
06 16.08.17 360 (С) 20000 м    6/6 1000 м 
[Sc]
+16.2 +8.5 60 +17  1013.6  -0.2  721  273  +8.6         
09 16.08.17 340 (С) 20000 м    8/8 1000 м 
[Sc]
+20.4 +7.9 44 +20  1011.9  -0.9  720  269           
12 16.08.17 010 (С) 20000 м    3/3 1000 м 
[Cu hum]
+21.8 +5.8 35 +22  1012  0.3  721  268           
15 16.08.17 340 (С) н/о    1/1 1000 м 
[Sc diur, vesp]
+17.8 +6.3 47 +18  1014.5  1.7  722  272    +22.8       
18 16.08.17 320 (СЗ) н/о    ясно 
+14.5 +6.9 60 +15  1015  -0.1  722  275    +22.8       
21 16.08.17 310 (СЗ) н/о    4/4 1000 м 
[Sc]
+12.4 +7.6 72 +14  1014.7  -0.6  721  277           
00 17.08.17 250 (З) 20000 м    3/3 1000 м 
[Sc]
+10.2 +7.1 81 +11  1015.7  0.5  722  279           
03 17.08.17 300 (СЗ) 20000 м    ясно 
+14.3 +2.9 46 +16  1014.9  -0.1  751  287           
06 17.08.17 020 (С) 20000 м    6/0 верхняя 
[Ci sp]
+19.7 +6.1 41 +21  1013.1  -0.7  721  270  +10         
09 17.08.17 050 (СВ) 20000 м    8/0 средняя, верхняя 
[Ac trans|Ci sp]
+24.2 +8.2 36 +24  1011.4  -0.8  720  265           
12 17.08.17 020 (С) 20000 м    8/4 1000 м верхняя 
[Sc|Ci sp]
+24.6 +7.4 33 +25  1010.6  -0.7  720  265           
15 17.08.17 320 (СЗ) н/о    6/6 1000 м 
[Sc]
+18.7 +6.8 46 +19  1014.9  3.1  722  271    +25.4       
18 17.08.17 300 (СЗ) н/о    3/0 средняя 
[Ac lent]
+16 +7.3 56 +17  1015.4  722  274    +25.4       
21 17.08.17 290 (З) н/о    3/0 верхняя 
[Ci fib]
+13.7 +8.4 70 +14  1016.2  0.3  722  276           
00 18.08.17 300 (СЗ) 20000 м    3/0 средняя 
[Ac trans]
+11 +6.4 73 +12  1016.3  -0.4  722  279           
03 18.08.17 270 (З) 20000 м    6/0 средняя 
[Ac und]
+17.9 +6.1 46 +18  1015.8  0.8  723  272           
06 18.08.17 340 (С) 20000 м    6/6 1000 м 
[Cu med, cong]
+22 +5.8 35 +22  1014.3  -0.8  722  268  +10         
Время (UTC), дата Ветер
(°,м/с) 
Видим.   Явления Облачность Т
(°С)
Тd
(°С)
f(%) Тe
(°С)
Pmin
(гПа)
dP
(гПа)
Po
(мм)
O2
(г/м3)
Тmin Tmax R s Состояние
почвы

Для получения пояснительной информации подведите курсор к названию столбца.

ПОГОДА Жангизтобе - архив

Всё, что Вы хотите узнать о погоде Жангизтобе - удобно и подробно!

Выберите нужную дату (начиная с 1 января 2015* года) и нажмите кнопку "Найти".
Будут отображены архивные сводки погоды по пункту Жангизтобе, начиная с указанной даты.


Отображать данные в формате CSV (для использования в таблицах Excel)


Внимание! Наш архив погоды предназначен исключительно для личного некоммерческого использования в познавательных целях. Если Вам необходимы официальные справки о состоянии погоды (для производственных, юридических, коммерческих и т.п. целей), обращайтесь в органы Росгидромета.

*Примечание: данная дата относится к архиву по метеостанциям СССР (Россия, СНГ, Балтия).
Архив по метеостанциям Зарубежной Европы и Азии (кроме Китая) хранится 10 дней, по другим регионам земного шара (Китай, Африка, Америка, Австралия, Океания) - 1 день.

Жангизтобе - район местоположения метеостанции


Название, широта, долгота, высота метеостанции:
Жангизтобе 49.2°ш. 81.2°д. 455 м над ур. моря [Казахстан]

Дополнительная информация

В oтличие oт бoльшинства пoгoдных сайтoв мы публикуем пoдрoбную метеoинфoрмацию в детальнoм прoфессиoнальнoм фoрмате.

Характеристики температуры и влажнoсти вoздуха измеряются на высoте 2 м в тени вдали oт зданий и деревьев.
Скoрoсть ветра измеряется на высoте 10 м (на урoвне рoста челoвека скoрoсть ветра ниже в 1.5-2 раза). Если метеoстанция нахoдится в гoрoде или в лесу, тo скoрoсть ветра занижена на 2-4 м/с пo сравнению с oткрытым местoм. Скoрoсть ветра над акватoриями крупных рек и oзёр, а также на вершинах хoлмoв на 2-5 м/с выше, чем в oбычных услoвиях.
Атмoсфернoе давление в разных тoчках местнoсти мoжет значительнo oтличаться oт давления на метеoстанции, в зависимoсти oт услoвий рельефа (при пoдъёме на 10 м давление пoнижается примернo на 1 мм рт.ст.).